This is the latest recevied weather packets stored in our database for station/object KB1FFS. If no packets are shown the sender has not sent any weather packets the latest 10 day(s).
| Time | Temp. | Humidity | Pressure | Rain* | Wind** | Luminosity | Snow |
|---|---|---|---|---|---|---|---|
| 1777071284 | 34.44° C | 29% | 1004.4 hPa | 0 mm | - | 356 W/m² | - |
| 1777070979 | 34.44° C | 31% | 1004.5 hPa | 0 mm | - | 378 W/m² | - |
| 1777070677 | 34.44° C | 31% | 1004.6 hPa | 0 mm | - | 397 W/m² | - |
| 1777070372 | 34.44° C | 32% | 1004.6 hPa | 0 mm | - | 416 W/m² | - |
| 1777070073 | 35° C | 31% | 1004.5 hPa | 0 mm | - | 434 W/m² | - |
| 1777069767 | 35° C | 32% | 1004.4 hPa | 0 mm | - | 453 W/m² | - |
| 1777069467 | 35.56° C | 34% | 1004.4 hPa | 0 mm | - | 472 W/m² | - |
| 1777069164 | 35° C | 36% | 1004.4 hPa | 0 mm | - | 487 W/m² | - |
| 1777068861 | 35.56° C | 34% | 1004.2 hPa | 0 mm | - | 508 W/m² | - |
| 1777068556 | 35.56° C | 36% | 1004.2 hPa | 0 mm | - | 519 W/m² | - |
| 1777068255 | 35° C | 35% | 1004.2 hPa | 0 mm | - | 534 W/m² | - |
| 1777067951 | 35° C | 37% | 1004.1 hPa | 0 mm | - | 552 W/m² | - |
| 1777067649 | 35° C | 36% | 1004 hPa | 0 mm | - | 562 W/m² | - |
| 1777067349 | 35° C | 36% | 1004 hPa | 0 mm | - | 588 W/m² | - |
| 1777067044 | 35° C | 39% | 1004.1 hPa | 0 mm | - | 607 W/m² | - |
| 1777066739 | 35° C | 38% | 1004 hPa | 0 mm | - | 609 W/m² | - |
| 1777066435 | 35° C | 40% | 1004.3 hPa | 0 mm | - | 624 W/m² | - |
| 1777066130 | 35° C | 40% | 1004.2 hPa | 0 mm | - | 637 W/m² | - |
| 1777065830 | 35° C | 39% | 1004.4 hPa | 0 mm | - | 656 W/m² | - |
| 1777065526 | 35° C | 38% | 1004.3 hPa | 0 mm | - | 683 W/m² | - |
| 1777065225 | 35° C | 40% | 1004.7 hPa | 0 mm | - | 685 W/m² | - |
| 1777064923 | 35° C | 41% | 1004.3 hPa | 0 mm | - | 698 W/m² | - |
| 1777064619 | 34.44° C | 42% | 1004.6 hPa | 0 mm | - | 734 W/m² | - |
| 1777064316 | 34.44° C | 43% | 1004.6 hPa | 0 mm | - | 757 W/m² | - |
| 1777064011 | 33.89° C | 43% | 1004.9 hPa | 0 mm | - | 751 W/m² | - |
* Rain latest hour (hover to see other rain measurements)
** Current wind speed in m/s (hover to see current wind gust speed)